Location: Paderno d�Adda
(45.6667°N, 9.4333°E)
Time: 10:35:35
(UTC+00:00)

ATLAS 3B R/B - Pass Details

Date: 26 January 2021
Orbit: 1006 x 1189 km, 63.8° (Epoch: 07 March)

Event Time Altitude Azimuth Distance (km) Brightness Sun altitude
Rises 04:49:48 0° 154° (SSE) 3,719 6.0 -21.0°
Reaches altitude 10° 04:54:08 10° 127° (SE) 2,778 5.7 -20.2°
Maximum altitude 04:56:41 13° 104° (ESE) 2,604 5.9 -19.8°
Drops below altitude 10° 04:59:14 10° 80° (E) 2,802 6.0 -19.3°
Sets 05:03:38 0° 54° (NE) 3,786 6.3 -18.6°
